| time (UTC) | temp F | wind direction | speed MPH | gust MPH | rain 1hr in | rain 24hr in | rain mn in | humidity % | barometer mb |
| 20260505011019 | 71 | 93 | 2.0 | 9.0 | 0.00 | 0.00 | 0.00 | 77 | 1016.8 |
| 20260505010517 | 71 | 51 | 2.0 | 9.0 | 0.00 | 0.00 | 0.00 | 77 | 1016.8 |
| 20260505010106 | 71 | 92 | 2.0 | 6.0 | 0.00 | 0.00 | 0.00 | 77 | 1016.6 |
| 20260505005518 | 72 | 85 | 3.0 | 6.0 | 0.00 | 0.00 | 0.00 | 77 | 1016.6 |
| 20260505005019 | 72 | 77 | 2.0 | 4.0 | 0.00 | 0.00 | 0.00 | 76 | 1016.5 |
| 20260505004547 | 72 | 111 | 1.0 | 6.0 | 0.00 | 0.00 | 0.00 | 75 | 1016.7 |
| 20260505004018 | 72 | 98 | 2.0 | 6.0 | 0.00 | 0.00 | 0.00 | 75 | 1016.8 |
| 20260505003521 | 72 | 68 | 2.0 | 7.0 | 0.00 | 0.00 | 0.00 | 74 | 1016.8 |
| 20260505003044 | 73 | 83 | 3.0 | 7.0 | 0.00 | 0.00 | 0.00 | 74 | 1016.8 |
| 20260505002517 | 73 | 82 | 3.0 | 9.0 | 0.00 | 0.00 | 0.00 | 74 | 1016.5 |
| 20260505002018 | 73 | 115 | 3.0 | 10.0 | 0.00 | 0.00 | 0.00 | 73 | 1016.5 |
| 20260505001557 | 73 | 74 | 2.0 | 10.0 | 0.00 | 0.00 | 0.00 | 73 | 1016.1 |
| 20260505001020 | 74 | 85 | 4.0 | 10.0 | 0.00 | 0.00 | 0.00 | 72 | 1016.2 |
| 20260505000730 | 74 | 87 | 5.0 | 10.0 | 0.00 | 0.00 | 0.00 | 71 | 1015.9 |
| 20260505000047 | 74 | 76 | 4.0 | 11.0 | 0.00 | 0.00 | 0.00 | 71 | 1015.7 |
| 20260504235513 | 75 | 125 | 5.0 | 11.0 | 0.00 | 0.00 | 0.00 | 71 | 1015.8 |
| 20260504235015 | 75 | 65 | 4.0 | 11.0 | 0.00 | 0.00 | 0.00 | 71 | 1015.8 |
| 20260504234540 | 75 | 84 | 3.0 | 10.0 | 0.00 | 0.00 | 0.00 | 71 | 1015.7 |
| 20260504234015 | 75 | 90 | 4.0 | 11.0 | 0.00 | 0.00 | 0.00 | 70 | 1015.6 |
| 20260504233515 | 76 | 92 | 2.0 | 11.0 | 0.00 | 0.00 | 0.00 | 70 | 1015.7 |
| 20260504233039 | 76 | 83 | 5.0 | 11.0 | 0.00 | 0.00 | 0.00 | 69 | 1015.8 |
| 20260504232516 | 77 | 42 | 6.0 | 14.0 | 0.00 | 0.00 | 0.00 | 67 | 1015.6 |
| 20260504232013 | 77 | 52 | 6.0 | 14.0 | 0.00 | 0.00 | 0.00 | 66 | 1015.7 |
| 20260504231539 | 78 | 51 | 4.0 | 11.0 | 0.00 | 0.00 | 0.00 | 66 | 1015.7 |
| 20260504231019 | 78 | 55 | 4.0 | 10.0 | 0.00 | 0.00 | 0.00 | 66 | 1015.6 |
| 20260504230515 | 78 | 34 | 4.0 | 11.0 | 0.00 | 0.00 | 0.00 | 65 | 1015.4 |
| 20260504230052 | 78 | 92 | 4.0 | 11.0 | 0.00 | 0.00 | 0.00 | 64 | 1015.4 |
| 20260504225519 | 78 | 105 | 4.0 | 14.0 | 0.00 | 0.00 | 0.00 | 63 | 1015.4 |
| 20260504225013 | 79 | 100 | 7.0 | 14.0 | 0.00 | 0.00 | 0.00 | 63 | 1015.5 |
| 20260504224544 | 79 | 102 | 7.0 | 12.0 | 0.00 | 0.00 | 0.00 | 63 | 1015.5 |
| 20260504224018 | 79 | 68 | 5.0 | 10.0 | 0.00 | 0.00 | 0.00 | 63 | 1015.6 |
| 20260504223515 | 79 | 15 | 3.0 | 10.0 | 0.00 | 0.00 | 0.00 | 63 | 1015.6 |
| 20260504223043 | 79 | 88 | 4.0 | 10.0 | 0.00 | 0.00 | 0.00 | 62 | 1015.5 |
| 20260504222515 | 79 | 74 | 5.0 | 12.0 | 0.00 | 0.00 | 0.00 | 61 | 1015.5 |
| 20260504222014 | 80 | 89 | 7.0 | 12.0 | 0.00 | 0.00 | 0.00 | 61 | 1015.6 |
| 20260504221542 | 81 | 64 | 7.0 | 13.0 | 0.00 | 0.00 | 0.00 | 60 | 1015.6 |
| 20260504221013 | 81 | 35 | 6.0 | 13.0 | 0.00 | 0.00 | 0.00 | 60 | 1015.6 |
| 20260504220517 | 81 | 82 | 6.0 | 12.0 | 0.00 | 0.00 | 0.00 | 59 | 1015.6 |
| 20260504220056 | 81 | 82 | 6.0 | 13.0 | 0.00 | 0.00 | 0.00 | 58 | 1015.5 |
| 20260504215518 | 81 | 96 | 9.0 | 13.0 | 0.00 | 0.00 | 0.00 | 58 | 1015.4 |
| 20260504215014 | 81 | 107 | 5.0 | 13.0 | 0.00 | 0.00 | 0.00 | 58 | 1015.6 |
| 20260504214539 | 81 | 88 | 5.0 | 13.0 | 0.00 | 0.00 | 0.00 | 59 | 1015.5 |
| 20260504214017 | 81 | 103 | 4.0 | 10.0 | 0.00 | 0.00 | 0.00 | 59 | 1015.5 |
| 20260504213516 | 81 | 111 | 7.0 | 10.0 | 0.00 | 0.00 | 0.00 | 58 | 1015.4 |
| 20260504213104 | 82 | 74 | 4.0 | 12.0 | 0.00 | 0.00 | 0.00 | 58 | 1015.5 |
| 20260504212515 | 82 | 96 | 6.0 | 12.0 | 0.00 | 0.00 | 0.00 | 57 | 1015.5 |
| 20260504212017 | 82 | 82 | 5.0 | 12.0 | 0.00 | 0.00 | 0.00 | 56 | 1015.4 |
| 20260504211544 | 82 | 57 | 5.0 | 11.0 | 0.00 | 0.00 | 0.00 | 58 | 1015.3 |
| 20260504211016 | 82 | 70 | 4.0 | 11.0 | 0.00 | 0.00 | 0.00 | 59 | 1015.6 |
| 20260504210515 | 82 | 60 | 6.0 | 10.0 | 0.00 | 0.00 | 0.00 | 57 | 1015.6 |
| 20260504210040 | 81 | 73 | 4.0 | 13.0 | 0.00 | 0.00 | 0.00 | 60 | 1015.7 |
| 20260504205518 | 81 | 44 | 5.0 | 14.0 | 0.00 | 0.00 | 0.00 | 59 | 1015.6 |
| 20260504205014 | 81 | 61 | 7.0 | 14.0 | 0.00 | 0.00 | 0.00 | 59 | 1015.7 |
| 20260504204543 | 81 | 24 | 6.0 | 13.0 | 0.00 | 0.00 | 0.00 | 58 | 1015.5 |
| 20260504204015 | 82 | 113 | 6.0 | 12.0 | 0.00 | 0.00 | 0.00 | 58 | 1015.5 |
| 20260504203516 | 83 | 130 | 4.0 | 12.0 | 0.00 | 0.00 | 0.00 | 55 | 1015.5 |
| 20260504203050 | 83 | 60 | 6.0 | 12.0 | 0.00 | 0.00 | 0.00 | 56 | 1015.6 |
| 20260504202540 | 84 | 347 | 5.0 | 11.0 | 0.00 | 0.00 | 0.00 | 56 | 1015.7 |
| 20260504202016 | 84 | 50 | 5.0 | 11.0 | 0.00 | 0.00 | 0.00 | 55 | 1015.7 |
| 20260504201549 | 84 | 61 | 5.0 | 11.0 | 0.00 | 0.00 | 0.00 | 55 | 1015.8 |
| 20260504201017 | 84 | 352 | 3.0 | 12.0 | 0.00 | 0.00 | 0.00 | 54 | 1015.8 |
| 20260504200515 | 83 | 97 | 5.0 | 12.0 | 0.00 | 0.00 | 0.00 | 55 | 1015.9 |
| 20260504200046 | 83 | 95 | 5.0 | 11.0 | 0.00 | 0.00 | 0.00 | 55 | 1016.0 |
| 20260504195516 | 83 | 62 | 6.0 | 11.0 | 0.00 | 0.00 | 0.00 | 54 | 1015.9 |
| 20260504195018 | 83 | 24 | 5.0 | 11.0 | 0.00 | 0.00 | 0.00 | 58 | 1015.9 |
| 20260504194543 | 82 | 5 | 5.0 | 12.0 | 0.00 | 0.00 | 0.00 | 57 | 1016.3 |
| 20260504194029 | 81 | 352 | 5.0 | 12.0 | 0.00 | 0.00 | 0.00 | 57 | 1016.2 |
| 20260504193518 | 81 | 54 | 5.0 | 11.0 | 0.00 | 0.00 | 0.00 | 59 | 1016.3 |
| 20260504193054 | 81 | 82 | 3.0 | 9.0 | 0.00 | 0.00 | 0.00 | 59 | 1016.3 |
| 20260504192516 | 81 | 46 | 5.0 | 10.0 | 0.00 | 0.00 | 0.00 | 59 | 1016.3 |
| 20260504192014 | 82 | 49 | 5.0 | 10.0 | 0.00 | 0.00 | 0.00 | 56 | 1016.3 |
| 20260504191545 | 82 | 80 | 5.0 | 10.0 | 0.00 | 0.00 | 0.00 | 55 | 1016.5 |
| 20260504191016 | 82 | 67 | 4.0 | 12.0 | 0.00 | 0.00 | 0.00 | 57 | 1016.5 |
| 20260504190518 | 82 | 124 | 4.0 | 12.0 | 0.00 | 0.00 | 0.00 | 55 | 1016.6 |
| 20260504190059 | 82 | 78 | 5.0 | 11.0 | 0.00 | 0.00 | 0.00 | 57 | 1016.6 |
| 20260504185517 | 81 | 51 | 4.0 | 10.0 | 0.00 | 0.00 | 0.00 | 57 | 1016.9 |
| 20260504185020 | 82 | 107 | 3.0 | 12.0 | 0.00 | 0.00 | 0.00 | 57 | 1017.0 |
| 20260504184550 | 82 | 15 | 6.0 | 12.0 | 0.00 | 0.00 | 0.00 | 57 | 1017.0 |
| 20260504184020 | 81 | 28 | 4.0 | 10.0 | 0.00 | 0.00 | 0.00 | 59 | 1017.0 |
| 20260504183516 | 81 | 65 | 3.0 | 12.0 | 0.00 | 0.00 | 0.00 | 60 | 1017.2 |
| 20260504183055 | 81 | 65 | 4.0 | 12.0 | 0.00 | 0.00 | 0.00 | 58 | 1017.3 |
| 20260504182516 | 81 | 352 | 4.0 | 10.0 | 0.00 | 0.00 | 0.00 | 59 | 1017.3 |
| 20260504182018 | 81 | 67 | 4.0 | 12.0 | 0.00 | 0.00 | 0.00 | 58 | 1017.6 |
| 20260504181545 | 82 | 30 | 7.0 | 12.0 | 0.00 | 0.00 | 0.00 | 56 | 1017.5 |
| 20260504181017 | 82 | 57 | 5.0 | 10.0 | 0.00 | 0.00 | 0.00 | 58 | 1017.5 |
| 20260504180518 | 81 | 86 | 4.0 | 12.0 | 0.00 | 0.00 | 0.00 | 58 | 1017.5 |
| 20260504180130 | 81 | 104 | 5.0 | 12.0 | 0.00 | 0.00 | 0.00 | 57 | 1017.7 |
| 20260504175559 | 81 | 69 | 4.0 | 13.0 | 0.00 | 0.00 | 0.00 | 57 | 1017.7 |
| 20260504175024 | 81 | 27 | 7.0 | 13.0 | 0.00 | 0.00 | 0.00 | 57 | 1017.9 |
| 20260504174608 | 81 | 20 | 4.0 | 10.0 | 0.00 | 0.00 | 0.00 | 57 | 1018.0 |
| 20260504174023 | 80 | 42 | 4.0 | 12.0 | 0.00 | 0.00 | 0.00 | 56 | 1017.9 |
| 20260504173526 | 81 | 39 | 4.0 | 12.0 | 0.00 | 0.00 | 0.00 | 55 | 1017.8 |
| 20260504173319 | 81 | 85 | 3.0 | 11.0 | 0.00 | 0.00 | 0.00 | 54 | 1018.0 |
| 20260504172517 | 81 | 30 | 4.0 | 11.0 | 0.00 | 0.00 | 0.00 | 57 | 1017.9 |
| 20260504172021 | 81 | 50 | 3.0 | 12.0 | 0.00 | 0.00 | 0.00 | 55 | 1017.9 |
| 20260504171552 | 81 | 30 | 4.0 | 12.0 | 0.00 | 0.00 | 0.00 | 56 | 1017.9 |
| 20260504171016 | 81 | 56 | 5.0 | 14.0 | 0.00 | 0.00 | 0.00 | 55 | 1017.8 |
| 20260504170517 | 81 | 352 | 4.0 | 14.0 | 0.00 | 0.00 | 0.00 | 58 | 1017.9 |
| 20260504170433 | 80 | 59 | 6.0 | 14.0 | 0.00 | 0.00 | 0.00 | 55 | 1018.0 |
| 20260504151018 | 77 | 62 | 5.0 | 15.0 | 0.00 | 0.00 | 0.00 | 60 | 1019.0 |
| 20260504150515 | 77 | 73 | 8.0 | 15.0 | 0.00 | 0.00 | 0.00 | 61 | 1019.2 |
| 20260504141016 | 75 | 45 | 6.0 | 15.0 | 0.00 | 0.00 | 0.00 | 70 | 1018.6 |
| 20260504140515 | 75 | 19 | 8.0 | 15.0 | 0.00 | 0.00 | 0.00 | 69 | 1018.7 |
| 20260504130517 | 72 | 360 | 4.0 | 10.0 | 0.00 | 0.00 | 0.00 | 76 | 1018.1 |
| 20260504120110 | 67 | 360 | 2.0 | 8.0 | 0.00 | 0.00 | 0.00 | 84 | 1017.7 |
| 20260504110522 | 62 | 305 | 2.0 | 4.0 | 0.00 | 0.00 | 0.00 | 90 | 1017.3 |
| 20260504110108 | 62 | 295 | 2.0 | 4.0 | 0.00 | 0.00 | 0.00 | 90 | 1017.3 |
| 20260504100513 | 63 | 326 | 2.0 | 4.0 | 0.00 | 0.00 | 0.00 | 89 | 1016.9 |
| 20260504081542 | 65 | 337 | 0.0 | 2.0 | 0.00 | 0.03 | 0.00 | 88 | 1016.7 |
| 20260504081015 | 65 | 317 | 0.0 | 3.0 | 0.00 | 0.03 | 0.00 | 88 | 1016.6 |
| 20260504080513 | 65 | 9 | 0.0 | 3.0 | 0.00 | 0.03 | 0.00 | 88 | 1016.9 |
| 20260504050518 | 67 | 30 | 2.0 | 5.0 | 0.00 | 0.08 | 0.00 | 84 | 1018.1 |
| 20260504045515 | 68 | 352 | 2.0 | 6.0 | 0.00 | 0.08 | 0.00 | 84 | 1018.3 |
| 20260504045019 | 67 | 5 | 2.0 | 6.0 | 0.00 | 0.08 | 0.00 | 84 | 1018.3 |
| 20260504044550 | 68 | 350 | 1.0 | 8.0 | 0.00 | 0.08 | 0.00 | 83 | 1018.4 |
| 20260504044016 | 68 | 319 | 2.0 | 8.0 | 0.00 | 0.08 | 0.00 | 83 | 1018.4 |
| 20260504043516 | 68 | 352 | 1.0 | 5.0 | 0.00 | 0.08 | 0.00 | 83 | 1018.5 |
| 20260504043101 | 69 | 329 | 1.0 | 8.0 | 0.00 | 0.08 | 0.00 | 83 | 1018.5 |
| 20260504042516 | 69 | 322 | 3.0 | 8.0 | 0.00 | 0.08 | 0.00 | 83 | 1018.5 |
| 20260504042021 | 69 | 22 | 1.0 | 6.0 | 0.00 | 0.08 | 0.00 | 82 | 1018.6 |
| 20260504041551 | 69 | 53 | 2.0 | 8.0 | 0.00 | 0.08 | 0.00 | 82 | 1018.5 |
| 20260504041016 | 69 | 13 | 3.0 | 9.0 | 0.00 | 0.08 | 0.00 | 82 | 1018.6 |
| 20260504040516 | 69 | 19 | 4.0 | 9.0 | 0.00 | 0.08 | 0.00 | 82 | 1018.6 |
| 20260504040104 | 69 | 28 | 3.0 | 8.0 | 0.00 | 0.08 | 0.00 | 82 | 1018.7 |
| 20260504035517 | 69 | 5 | 3.0 | 8.0 | 0.00 | 0.08 | 0.08 | 83 | 1018.7 |
| 20260504035015 | 69 | 70 | 1.0 | 7.0 | 0.00 | 0.08 | 0.08 | 83 | 1018.8 |
| 20260504034615 | 69 | 13 | 3.0 | 7.0 | 0.00 | 0.08 | 0.08 | 83 | 1018.8 |
| 20260504034016 | 69 | 49 | 1.0 | 6.0 | 0.00 | 0.08 | 0.08 | 83 | 1018.6 |
| 20260504033517 | 69 | 90 | 1.0 | 6.0 | 0.00 | 0.08 | 0.08 | 82 | 1018.4 |
| 20260504033106 | 69 | 130 | 2.0 | 8.0 | 0.00 | 0.08 | 0.08 | 82 | 1018.7 |
| 20260504032516 | 69 | 17 | 3.0 | 8.0 | 0.00 | 0.08 | 0.08 | 82 | 1018.7 |
| 20260504032019 | 69 | 93 | 3.0 | 7.0 | 0.00 | 0.08 | 0.08 | 81 | 1018.7 |
| 20260504031602 | 69 | 61 | 2.0 | 9.0 | 0.00 | 0.08 | 0.08 | 81 | 1018.6 |
| 20260504031017 | 69 | 51 | 4.0 | 9.0 | 0.00 | 0.08 | 0.08 | 81 | 1018.7 |
| 20260504030517 | 70 | 70 | 3.0 | 6.0 | 0.00 | 0.08 | 0.08 | 81 | 1018.5 |
| 20260504030057 | 70 | 76 | 2.0 | 10.0 | 0.00 | 0.08 | 0.08 | 81 | 1018.4 |
| 20260504025516 | 70 | 63 | 4.0 | 10.0 | 0.00 | 0.08 | 0.08 | 81 | 1018.4 |
| 20260504025016 | 70 | 43 | 3.0 | 9.0 | 0.00 | 0.08 | 0.08 | 80 | 1018.6 |
| 20260504024554 | 70 | 44 | 2.0 | 7.0 | 0.00 | 0.08 | 0.08 | 80 | 1018.6 |
| 20260504024019 | 70 | 75 | 2.0 | 10.0 | 0.00 | 0.08 | 0.08 | 80 | 1018.6 |
| 20260504023516 | 70 | 49 | 3.0 | 10.0 | 0.00 | 0.08 | 0.08 | 80 | 1018.6 |
| 20260504023055 | 70 | 11 | 3.0 | 9.0 | 0.00 | 0.08 | 0.08 | 80 | 1018.4 |
| 20260504022519 | 70 | 14 | 4.0 | 10.0 | 0.00 | 0.08 | 0.08 | 80 | 1018.3 |
| 20260504022020 | 70 | 89 | 4.0 | 10.0 | 0.00 | 0.08 | 0.08 | 79 | 1018.3 |
| 20260504021602 | 70 | 80 | 4.0 | 9.0 | 0.00 | 0.08 | 0.08 | 80 | 1018.0 |
| 20260504021017 | 70 | 352 | 4.0 | 10.0 | 0.00 | 0.08 | 0.08 | 79 | 1018.2 |
| 20260504020518 | 70 | 52 | 4.0 | 8.0 | 0.00 | 0.08 | 0.08 | 79 | 1018.2 |
| 20260504020114 | 71 | 61 | 4.0 | 9.0 | 0.00 | 0.08 | 0.08 | 79 | 1018.4 |
| 20260504015520 | 71 | 10 | 4.0 | 11.0 | 0.00 | 0.08 | 0.08 | 78 | 1018.2 |
| 20260504015017 | 71 | 69 | 5.0 | 11.0 | 0.00 | 0.08 | 0.08 | 78 | 1018.1 |
| 20260504014606 | 71 | 53 | 4.0 | 10.0 | 0.00 | 0.08 | 0.08 | 78 | 1018.3 |
| 20260504014020 | 71 | 64 | 5.0 | 11.0 | 0.00 | 0.08 | 0.08 | 77 | 1018.2 |
| 20260504013521 | 71 | 43 | 3.0 | 11.0 | 0.00 | 0.08 | 0.08 | 77 | 1018.0 |
| 20260504013105 | 71 | 41 | 3.0 | 10.0 | 0.00 | 0.08 | 0.08 | 78 | 1018.1 |
| 20260504012519 | 71 | 64 | 4.0 | 10.0 | 0.00 | 0.08 | 0.08 | 77 | 1018.2 |
| 20260504012019 | 72 | 5 | 3.0 | 11.0 | 0.00 | 0.08 | 0.08 | 78 | 1017.9 |
| 20260504011556 | 72 | 63 | 3.0 | 11.0 | 0.00 | 0.08 | 0.08 | 78 | 1018.1 |